User: anonymous
Location: Key Biscayne
(25.6930°N, 80.1630°W)
Time: 23:12:11
(UTC-04:00)
Language:

CZ-2D R/B - Orbit

View from above orbital plane
View from above orbital plane
View from above satellite
View from above satellite

Ground track
Ground track

The orbit data is extracted from the following two-line orbital elements,

1 28738U 05024B   14109.45884605  .00007199  00000-0  49282-3 0  7345
2 28738 097.6366 145.2807 0013380 006.6767 353.4636 15.06318333481625
Epoch (UTC): 19 April 2014 11:00:44
Eccentricity: 0.0013380
inclination: 97.6366°
perigee height: 538 km
apogee height: 557 km
right ascension of ascending node: 145.2807°
argument of perigee: 6.6767°
revolutions per day: 15.06318333
mean anomaly at epoch: 353.4636°
orbit number at epoch: 48162

The dashed part of the orbit path shows where the satellite is in the earth's shadow,  

DLR